TimeEDT,TemperatureF,Dew PointF,Humidity,Sea Level PressureIn,VisibilityMPH,Wind Direction,Wind SpeedMPH,Gust SpeedMPH,PrecipitationIn,Events,Conditions,WindDirDegrees,DateUTC
12:15 AM,5.4,-4.9,63,30.21,10.0,Calm,Calm,-,N/A,,Clear,0,2014-03-17 04:15:00
12:35 AM,3.4,-6.7,63,30.21,10.0,Calm,Calm,-,N/A,,Clear,0,2014-03-17 04:35:00
12:55 AM,3.9,-7.4,59,30.21,10.0,Calm,Calm,-,N/A,,Clear,0,2014-03-17 04:55:00
1:15 AM,1.9,-6.3,68,30.21,10.0,Calm,Calm,-,N/A,,Clear,0,2014-03-17 05:15:00
1:35 AM,3.0,-6.5,65,30.21,10.0,Calm,Calm,-,N/A,,Clear,0,2014-03-17 05:35:00
2:15 AM,2.1,-6.3,68,30.20,10.0,Calm,Calm,-,N/A,,Clear,0,2014-03-17 06:15:00
2:35 AM,1.6,-6.5,69,30.19,10.0,Calm,Calm,-,N/A,,Clear,0,2014-03-17 06:35:00
2:55 AM,1.2,-7.4,67,30.19,10.0,Calm,Calm,-,N/A,,Clear,0,2014-03-17 06:55:00
3:15 AM,1.0,-8.5,64,30.18,10.0,Calm,Calm,-,N/A,,Clear,0,2014-03-17 07:15:00
3:35 AM,1.2,-8.1,65,30.17,10.0,Calm,Calm,-,N/A,,Clear,0,2014-03-17 07:35:00
3:55 AM,-0.4,-8.0,70,30.17,10.0,Calm,Calm,-,N/A,,Clear,0,2014-03-17 07:55:00
4:15 AM,0.1,-7.8,69,30.16,10.0,Calm,Calm,-,N/A,,Clear,0,2014-03-17 08:15:00
4:35 AM,-0.9,-7.2,75,30.15,10.0,Calm,Calm,-,N/A,,Clear,0,2014-03-17 08:35:00
4:55 AM,0.3,-7.2,70,30.16,10.0,Calm,Calm,-,N/A,,Clear,0,2014-03-17 08:55:00
5:15 AM,0.1,-7.2,71,30.16,10.0,Calm,Calm,-,N/A,,Clear,0,2014-03-17 09:15:00
5:35 AM,-0.6,-7.1,74,30.17,10.0,Calm,Calm,-,N/A,,Clear,0,2014-03-17 09:35:00
5:55 AM,-2.0,-9.0,72,30.17,10.0,Calm,Calm,-,N/A,,Clear,0,2014-03-17 09:55:00
6:15 AM,-2.0,-7.6,77,30.17,10.0,Calm,Calm,-,N/A,,Clear,0,2014-03-17 10:15:00
6:35 AM,-1.1,-7.1,76,30.17,10.0,Calm,Calm,-,N/A,,Clear,0,2014-03-17 10:35:00
6:55 AM,-1.1,-8.0,73,30.18,10.0,Calm,Calm,-,N/A,,Clear,0,2014-03-17 10:55:00
7:15 AM,-2.0,-8.5,74,30.19,10.0,Calm,Calm,-,N/A,,Clear,0,2014-03-17 11:15:00
7:35 AM,-1.7,-8.7,72,30.19,10.0,Calm,Calm,-,N/A,,Clear,0,2014-03-17 11:35:00
7:55 AM,-3.6,-11.0,71,30.19,10.0,Calm,Calm,-,N/A,,Clear,0,2014-03-17 11:55:00
8:15 AM,0.1,-8.5,67,30.20,10.0,Calm,Calm,-,N/A,,Clear,0,2014-03-17 12:15:00
8:35 AM,1.6,-8.1,64,30.20,7.0,Calm,Calm,-,N/A,,Clear,0,2014-03-17 12:35:00
8:55 AM,3.7,-8.0,58,30.20,10.0,Calm,Calm,-,N/A,,Clear,0,2014-03-17 12:55:00
9:15 AM,3.4,-8.1,59,30.19,10.0,NW,3.5,-,N/A,,Clear,310,2014-03-17 13:15:00
9:35 AM,5.9,-7.6,54,30.19,10.0,Calm,Calm,-,N/A,,Clear,0,2014-03-17 13:35:00
9:55 AM,8.6,-6.9,50,30.19,10.0,West,3.5,-,N/A,,Clear,270,2014-03-17 13:55:00
10:15 AM,10.2,-6.9,46,30.19,10.0,WNW,3.5,-,N/A,,Clear,290,2014-03-17 14:15:00
10:35 AM,11.3,-8.5,41,30.17,10.0,Calm,Calm,-,N/A,,Clear,0,2014-03-17 14:35:00
10:55 AM,12.2,-8.0,40,30.17,10.0,WNW,4.6,-,N/A,,Clear,300,2014-03-17 14:55:00
11:15 AM,13.3,-9.6,36,30.16,10.0,NW,4.6,-,N/A,,Clear,310,2014-03-17 15:15:00
11:35 AM,14.0,-9.4,35,30.15,10.0,WNW,5.8,-,N/A,,Clear,300,2014-03-17 15:35:00
11:55 AM,14.9,-9.0,34,30.14,10.0,WNW,4.6,-,N/A,,Clear,290,2014-03-17 15:55:00
12:15 PM,16.3,-8.9,32,30.14,10.0,WSW,5.8,-,N/A,,Clear,240,2014-03-17 16:15:00
12:35 PM,16.5,-7.6,34,30.14,10.0,NW,4.6,-,N/A,,Clear,310,2014-03-17 16:35:00
12:55 PM,16.9,-8.0,33,30.14,10.0,West,4.6,-,N/A,,Clear,270,2014-03-17 16:55:00
1:15 PM,17.8,-6.2,34,30.14,10.0,NW,4.6,-,N/A,,Clear,310,2014-03-17 17:15:00
1:35 PM,18.1,-6.7,33,30.14,10.0,WNW,8.1,-,N/A,,Clear,290,2014-03-17 17:35:00
1:55 PM,18.3,-6.2,34,30.13,10.0,West,3.5,-,N/A,,Clear,280,2014-03-17 17:55:00
2:15 PM,19.4,-6.9,31,30.12,10.0,WNW,3.5,-,N/A,,Clear,300,2014-03-17 18:15:00
2:35 PM,20.3,-5.4,32,30.11,10.0,West,8.1,-,N/A,,Clear,270,2014-03-17 18:35:00
2:55 PM,20.1,-5.8,32,30.09,10.0,West,10.4,-,N/A,,Clear,280,2014-03-17 18:55:00
3:15 PM,20.8,-6.0,31,30.10,10.0,West,6.9,-,N/A,,Clear,270,2014-03-17 19:15:00
3:35 PM,21.2,-5.4,31,30.10,10.0,WNW,8.1,-,N/A,,Clear,290,2014-03-17 19:35:00
3:55 PM,21.2,-4.0,33,30.09,10.0,West,8.1,-,N/A,,Clear,280,2014-03-17 19:55:00
4:15 PM,21.6,-4.5,32,30.10,10.0,West,5.8,-,N/A,,Clear,270,2014-03-17 20:15:00
4:35 PM,21.9,-4.9,31,30.09,10.0,West,8.1,-,N/A,,Clear,270,2014-03-17 20:35:00
4:55 PM,21.2,-5.4,31,30.09,10.0,West,5.8,-,N/A,,Clear,280,2014-03-17 20:55:00
5:15 PM,21.6,-4.5,32,30.09,10.0,West,4.6,-,N/A,,Clear,270,2014-03-17 21:15:00
5:35 PM,21.7,-4.4,32,30.09,10.0,West,5.8,-,N/A,,Clear,280,2014-03-17 21:35:00
5:55 PM,21.2,-4.2,33,30.09,10.0,West,6.9,-,N/A,,Clear,280,2014-03-17 21:55:00
6:15 PM,21.2,-4.2,33,30.09,10.0,WNW,3.5,-,N/A,,Clear,290,2014-03-17 22:15:00
6:35 PM,20.3,-3.6,35,30.09,10.0,West,3.5,-,N/A,,Clear,270,2014-03-17 22:35:00
6:55 PM,19.4,-4.5,35,30.10,10.0,Calm,Calm,-,N/A,,Clear,0,2014-03-17 22:55:00
7:15 PM,17.6,-4.0,38,30.10,10.0,Calm,Calm,-,N/A,,Clear,0,2014-03-17 23:15:00
7:35 PM,17.2,-3.8,39,30.11,10.0,Calm,Calm,-,N/A,,Clear,0,2014-03-17 23:35:00
7:55 PM,14.2,-2.6,48,30.12,10.0,Calm,Calm,-,N/A,,Clear,0,2014-03-17 23:55:00
8:15 PM,14.5,0.5,54,30.13,10.0,Calm,Calm,-,N/A,,Clear,0,2014-03-18 00:15:00
8:35 PM,13.8,-0.8,52,30.14,10.0,Calm,Calm,-,N/A,,Clear,0,2014-03-18 00:35:00
8:55 PM,12.7,1.6,61,30.15,10.0,Calm,Calm,-,N/A,,Clear,0,2014-03-18 00:55:00
9:15 PM,11.5,1.9,66,30.15,10.0,Calm,Calm,-,N/A,,Clear,0,2014-03-18 01:15:00
9:35 PM,11.1,1.0,64,30.15,10.0,Calm,Calm,-,N/A,,Clear,0,2014-03-18 01:35:00
9:55 PM,10.4,0.3,64,30.16,10.0,Calm,Calm,-,N/A,,Clear,0,2014-03-18 01:55:00
10:15 PM,9.3,-0.6,64,30.16,10.0,Calm,Calm,-,N/A,,Clear,0,2014-03-18 02:15:00
10:35 PM,9.1,-1.1,63,30.16,10.0,Calm,Calm,-,N/A,,Clear,0,2014-03-18 02:35:00
10:55 PM,7.0,-1.1,69,30.15,10.0,Calm,Calm,-,N/A,,Clear,0,2014-03-18 02:55:00
11:15 PM,7.5,-1.7,66,30.15,10.0,Calm,Calm,-,N/A,,Clear,0,2014-03-18 03:15:00
11:35 PM,7.0,-1.7,68,30.16,10.0,Calm,Calm,-,N/A,,Clear,0,2014-03-18 03:35:00
11:55 PM,6.3,-1.7,70,30.17,7.0,Calm,Calm,-,N/A,,Clear,0,2014-03-18 03:55:00